User: anonymous   Login
Location: Innerarity Island Observatory
(30.3139°N, 87.4867°W)
Time: 03:13:55
(UTC-05:00)
Language:

JAS-2 - Orbit

View from above orbital plane
View from above orbital plane
View from above satellite
View from above satellite

Ground track
Ground track

The orbit data is extracted from the following two-line orbital elements,

1 24278U 96046B   15210.81716812 -.00000025  00000-0  12638-4 0  9993
2 24278 098.5442 173.8511 0349767 320.4566 094.4231 13.53055212935798
Epoch (UTC): 29 July 2015 19:36:43
Eccentricity: 0.0349767
inclination: 98.5442°
perigee height: 801 km
apogee height: 1321 km
right ascension of ascending node: 173.8511°
argument of perigee: 320.4566°
revolutions per day: 13.53055212
mean anomaly at epoch: 94.4231°
orbit number at epoch: 93579

The dashed part of the orbit path shows where the satellite is in the earth's shadow,  

DLR